Location: Tamazert
(32.6352°N, 5.2072°W)
Time: 04:02:58
(UTC+00:00)

Vanguard 2 Rocket - Pass Details

Date: 08 October 2022
Orbit: 555 x 3321 km, 32.9° (Epoch: 05 December)

Event Time Altitude Azimuth Distance (km) Brightness Sun altitude
Rises 17:25:07 0° 199° (SSW) 6,861 11.8 5.7°
Reaches altitude 10° 17:30:51 10° 187° (S) 6,090 11.4 4.5°
Maximum altitude 17:45:35 26° 139° (SE) 4,974 10.4 1.5°
Drops below altitude 10° 17:59:18 10° 92° (E) 5,740 10.3 -1.4°
Enters shadow 18:03:11 - 83° (E) 6,256 10.4 -2.2°
Sets 18:04:19 0° 81° (E) 6,423 - -2.4°
